Theta_e
312 311 312 317 321 322 320 319 313 314 315 307 309 311 313 316 317 317 318 320 322 330 336 339 338 330 331 338 343 344 346 349 346 338 339 352 353 350 354 352 352 349 348 347 346 343 339 336 333 334 335 337 338 338 340 341 340 341 341 341 341 340 340 340 339 337 334 334 336 338 337 337 337 337 337 338 340 340 339 340 341 342 342 342 343 343 343 343 343 344 343 342 340 340 340 339 337
315 313 315 320 322 322 320 317 311 311 311 306 310 313 314 317 317 317 318 320 321 324 330 337 341 336 335 341 341 342 348 348 348 348 349 352 351 352 353 352 352 349 348 347 345 344 342 338 332 333 332 334 336 338 340 341 341 341 341 341 339 339 339 338 337 336 335 336 337 338 337 337 337 337 337 337 338 339 339 339 341 342 342 342 342 343 343 343 343 343 342 340 337 336 336 336 334
317 317 319 320 321 320 319 317 311 308 308 306 309 316 317 316 316 318 320 321 322 324 329 336 339 339 338 341 341 344 350 347 346 347 349 351 352 352 352 353 351 349 348 346 346 344 344 339 332 332 330 331 332 335 337 339 341 340 339 339 338 338 337 337 337 336 336 336 337 337 336 336 337 337 336 337 337 338 338 338 340 341 341 342 341 342 343 342 342 341 340 337 335 334 333 332 332
318 320 321 321 318 317 317 316 312 308 307 306 308 315 317 315 317 318 320 321 322 326 332 337 340 339 341 344 343 347 351 347 347 347 350 351 352 352 353 352 350 349 347 347 346 344 345 340 333 331 330 329 329 330 331 334 337 337 338 336 337 338 337 336 337 336 337 338 338 337 336 336 338 337 336 337 337 337 338 338 339 340 341 341 341 341 342 342 341 340 339 336 334 332 331 332 331
318 321 322 322 319 317 317 317 315 310 308 309 309 314 317 316 319 319 320 321 322 329 331 334 339 341 344 346 347 349 349 347 348 348 349 350 352 352 352 352 351 349 347 346 345 345 345 339 333 331 330 329 328 327 326 327 328 332 336 335 336 337 336 337 336 337 338 338 338 338 338 337 336 336 337 337 337 337 338 339 339 340 340 340 340 340 341 340 338 337 335 333 332 331 330 331 331
319 321 321 321 319 318 316 313 312 310 312 314 312 315 318 316 319 319 320 320 323 330 328 329 335 339 345 347 348 348 348 349 348 347 349 350 351 352 352 352 351 349 347 346 345 346 344 337 333 332 330 329 329 327 326 324 325 332 336 336 337 336 336 338 338 338 338 338 338 338 338 337 336 335 337 337 337 338 338 339 339 340 340 339 339 339 338 336 334 332 331 331 330 330 329 329 331
319 320 319 318 317 317 315 311 311 312 315 317 314 316 318 317 319 319 320 321 322 328 329 332 331 332 345 347 348 348 348 350 349 348 349 351 351 351 351 351 351 349 347 346 346 346 343 337 333 332 330 329 329 328 327 327 331 336 337 337 338 336 337 338 338 338 337 337 338 338 338 338 338 337 337 337 338 338 338 338 339 339 339 339 339 339 336 332 330 330 330 330 329 329 330 329 330
319 321 318 316 316 316 313 312 314 315 317 317 316 317 317 318 319 319 320 320 321 324 327 334 332 332 344 347 349 349 349 350 349 349 350 351 351 351 351 351 350 349 347 346 346 346 342 336 333 333 331 330 330 329 329 331 336 338 338 338 337 337 338 338 338 338 337 337 338 337 337 339 339 338 338 337 337 337 338 338 339 339 339 339 339 338 333 330 330 330 330 329 328 329 330 330 330
318 318 318 315 316 316 312 312 315 317 317 317 317 316 318 318 318 319 319 319 320 320 321 331 335 336 343 347 350 348 349 351 350 350 351 351 351 351 351 351 350 348 347 347 347 346 342 337 336 335 333 333 332 331 333 335 337 338 338 338 337 338 339 338 338 337 337 337 338 338 338 339 339 337 337 338 336 336 338 339 339 339 339 339 339 336 331 329 330 331 331 329 329 330 330 330 329
317 315 317 314 314 312 310 311 313 316 317 315 316 316 318 318 318 319 319 320 320 320 323 333 338 339 342 348 350 347 349 351 350 350 351 351 351 351 351 351 349 348 346 347 347 345 343 339 338 338 336 336 335 335 337 336 336 338 338 338 337 338 339 338 337 337 338 337 338 339 338 338 338 336 336 337 337 337 338 338 338 338 338 339 337 333 330 329 330 332 331 330 330 330 331 331 328
316 314 315 313 311 309 308 310 312 315 315 314 316 317 317 317 318 318 319 320 320 322 329 336 339 340 344 349 349 348 350 350 351 351 351 351 351 350 350 350 348 347 346 347 346 345 343 340 339 339 337 337 336 337 338 336 337 338 338 338 337 337 338 338 337 336 338 338 338 339 337 336 336 335 335 335 334 334 336 337 338 338 338 338 334 332 330 328 331 332 331 331 330 331 331 330 328
316 315 314 311 310 310 310 311 312 314 314 315 316 317 318 317 317 318 319 320 319 325 334 337 338 339 345 349 348 348 350 351 351 351 352 351 350 350 349 348 348 347 346 346 346 345 343 342 340 339 337 336 337 338 336 336 338 338 339 338 336 337 338 339 337 335 337 339 338 339 336 335 335 335 334 333 331 330 332 335 338 338 338 335 332 331 330 328 331 333 332 331 330 331 331 330 327
315 316 314 310 312 313 312 312 312 313 314 317 317 317 318 318 319 318 320 322 322 328 337 339 338 340 347 350 349 349 349 351 352 351 352 351 350 350 349 348 347 347 347 347 346 344 344 342 341 339 337 336 337 337 335 336 339 339 339 338 336 336 338 339 338 336 336 338 338 338 335 335 337 336 333 333 331 330 331 333 336 337 337 334 331 331 329 329 332 333 333 331 331 331 331 330 327
314 316 315 312 314 314 312 311 312 311 313 317 317 316 319 325 327 324 324 327 331 336 341 342 339 342 348 350 349 348 349 351 352 351 351 351 350 350 349 348 347 347 347 347 346 345 344 343 342 341 338 337 336 335 335 335 338 339 339 338 336 335 337 338 338 337 334 335 335 335 336 338 339 336 333 332 331 332 332 332 336 336 336 334 331 330 328 329 332 333 333 332 331 331 331 330 327
315 315 315 313 314 313 312 312 312 312 314 317 316 316 322 330 333 332 333 335 341 343 342 344 342 342 345 347 349 348 349 350 351 351 351 350 350 350 349 349 347 347 346 347 346 345 344 343 344 342 340 340 338 337 337 335 336 338 338 338 336 334 336 336 337 337 334 332 334 336 338 339 338 335 332 331 331 331 330 331 335 336 335 332 328 328 327 329 332 333 333 332 331 331 331 329 327
316 315 314 314 312 311 312 313 314 314 315 317 316 317 321 329 335 337 339 338 343 345 344 344 343 344 344 344 346 349 350 350 350 350 351 350 350 350 349 349 347 347 347 346 346 345 345 344 344 343 342 342 341 341 340 337 337 337 336 337 336 334 335 335 335 335 333 331 334 336 335 335 336 334 333 331 330 331 331 331 332 334 333 328 326 327 327 330 332 333 333 332 331 331 331 329 327
316 315 315 313 312 312 312 313 314 314 316 317 317 316 318 328 337 340 341 341 343 345 347 346 345 346 345 345 348 351 350 349 350 350 351 350 350 350 349 348 348 347 347 346 346 346 345 345 345 343 343 342 343 342 342 341 338 337 337 335 334 334 333 333 334 333 331 331 333 335 335 336 337 335 335 334 332 333 333 329 328 332 330 325 325 326 328 330 332 333 333 332 332 331 331 329 327
315 315 314 312 313 313 313 315 316 316 317 317 317 316 316 325 335 339 340 341 344 344 346 346 346 347 346 349 350 350 349 349 350 350 351 351 350 349 348 348 347 347 347 345 345 345 345 345 344 343 342 342 343 342 343 342 338 339 339 337 335 336 335 334 334 333 333 334 335 336 338 339 339 338 338 336 335 336 333 329 327 329 327 323 325 327 329 331 332 333 332 332 332 331 332 332 329
314 315 314 313 315 315 315 316 317 317 317 316 317 316 315 319 326 332 335 338 340 341 344 346 347 347 347 350 350 349 349 350 350 351 351 350 349 348 347 347 347 348 346 342 342 344 343 343 342 341 342 343 344 342 342 342 340 341 341 340 339 339 339 338 338 337 337 338 338 339 341 341 341 340 339 337 337 336 334 331 326 325 325 324 325 328 330 332 332 333 333 332 332 332 335 336 334
314 316 315 315 315 315 315 314 316 317 316 316 316 316 316 316 318 324 330 334 335 336 341 343 346 349 348 347 349 349 349 350 350 350 350 349 348 347 347 347 347 347 344 339 341 344 342 342 341 341 343 344 344 342 343 343 342 342 342 341 340 341 341 340 341 341 340 340 340 340 340 341 342 341 339 337 336 336 335 333 327 324 326 324 325 330 332 333 333 333 332 332 332 335 337 336 336
314 316 315 315 315 315 315 314 316 316 316 316 315 316 316 316 317 323 328 329 330 331 334 336 343 350 348 346 347 349 350 350 349 349 349 349 347 346 347 348 347 346 343 340 343 344 342 342 342 342 343 343 342 342 343 342 342 342 342 342 341 341 342 342 342 342 341 340 340 339 338 339 341 342 339 337 336 336 336 335 332 330 331 328 328 333 335 334 335 334 333 333 335 337 336 336 335
316 316 314 315 315 314 314 315 315 315 316 315 316 316 315 316 317 324 329 325 325 327 329 333 342 348 348 346 347 348 350 349 349 349 348 348 347 346 347 347 346 346 343 343 343 343 343 343 342 343 343 342 341 340 342 342 343 343 342 342 341 341 341 343 342 342 341 340 340 340 338 337 339 341 340 338 337 337 337 336 335 334 334 333 332 335 335 335 336 336 335 336 337 337 335 336 335
315 316 315 316 315 314 315 316 315 316 316 315 316 315 314 316 315 322 326 322 326 330 330 335 343 348 348 347 347 346 347 347 348 349 348 348 346 347 348 346 345 345 343 343 344 343 343 343 342 343 342 341 341 341 342 342 343 343 342 342 341 341 341 342 342 342 341 340 340 340 339 337 338 341 341 340 338 336 336 336 335 335 334 333 333 333 333 335 336 336 337 337 337 336 335 335 334
313 314 315 315 315 315 315 316 315 315 315 315 316 314 314 316 315 320 322 323 332 335 334 339 345 349 348 346 346 345 345 347 348 348 347 346 345 346 347 344 344 345 345 343 344 344 343 343 343 343 342 341 342 342 343 343 343 342 341 341 341 341 341 342 342 341 341 341 340 339 338 338 337 340 341 341 339 336 335 335 335 335 333 333 333 333 332 334 335 336 337 337 337 336 335 334 333
312 312 315 315 314 315 315 315 315 315 315 316 315 314 315 315 315 317 321 329 337 338 338 343 346 347 346 345 345 345 346 347 349 348 347 346 345 345 344 344 345 345 345 345 344 343 343 342 343 343 342 342 343 343 343 342 342 342 341 341 340 341 341 341 341 341 340 340 341 339 338 338 337 336 338 340 337 335 336 336 335 335 334 333 333 332 332 333 335 336 336 336 336 335 335 334 333
313 312 314 314 314 314 315 315 315 315 315 315 314 314 315 314 314 316 323 334 340 341 342 345 347 346 345 345 345 345 345 347 349 347 346 345 344 344 344 344 345 344 344 344 343 343 343 342 342 343 342 343 343 344 343 342 342 342 341 341 341 341 340 341 341 340 340 339 341 339 338 338 337 335 336 337 336 335 336 336 335 335 334 334 333 332 332 333 334 336 336 335 336 335 335 334 334
314 313 313 314 314 315 315 314 315 315 315 315 314 315 315 314 314 316 325 337 341 343 344 346 347 347 345 345 345 345 347 348 347 346 345 344 344 344 344 344 344 344 344 343 342 343 344 343 343 343 342 343 343 343 343 342 342 341 341 341 341 341 341 341 340 340 339 340 341 340 338 337 336 336 336 337 336 335 336 336 335 334 334 334 333 333 332 332 333 335 335 335 336 335 335 335 335
315 314 314 314 314 315 315 315 315 315 315 315 314 315 315 314 315 321 331 340 343 342 344 345 345 345 345 345 344 344 347 347 345 345 345 345 345 345 345 344 344 344 342 342 342 343 344 343 344 344 343 343 343 342 342 341 341 341 341 341 341 342 341 341 340 339 339 340 341 340 339 337 336 336 336 337 336 335 335 336 336 335 335 334 334 333 333 332 333 334 335 335 335 335 335 335 335
315 314 314 314 314 314 314 314 315 315 315 315 314 314 314 314 318 329 338 341 342 341 342 344 343 343 344 345 343 343 346 346 345 345 345 345 344 344 344 344 343 342 341 342 342 342 344 344 344 344 343 343 342 341 341 341 340 340 341 341 341 341 341 340 339 339 339 340 341 340 339 338 337 336 336 337 336 336 335 336 336 335 335 334 334 334 333 333 333 333 334 334 335 335 335 335 335
314 313 313 314 313 313 314 314 315 315 314 314 314 311 313 316 317 324 335 341 341 340 340 341 343 342 343 344 342 342 345 345 345 345 345 345 344 343 343 342 341 341 341 341 341 341 343 344 343 342 342 342 341 340 339 340 340 340 341 340 341 341 341 340 339 340 341 340 340 340 339 339 337 336 336 337 337 336 335 335 336 336 335 334 333 333 333 332 333 333 333 333 334 334 334 335 335
312 312 312 313 311 310 314 315 314 315 314 314 314 310 312 319 320 320 330 340 340 336 338 340 343 343 342 343 341 342 344 345 345 345 344 344 343 343 342 341 340 340 340 340 340 340 341 342 342 341 341 340 339 338 338 339 340 340 340 339 339 340 341 340 339 340 341 340 340 339 339 339 338 336 336 337 337 337 337 336 336 336 335 334 333 333 333 333 333 333 332 333 333 334 334 334 334
312 311 309 311 310 311 314 314 314 315 314 314 314 311 314 322 325 323 328 338 339 335 337 341 344 344 343 342 342 342 343 344 344 344 344 344 343 343 342 341 340 340 340 340 340 340 340 341 341 340 339 339 338 338 338 338 339 339 339 339 339 340 340 339 339 340 340 340 340 339 339 339 338 336 335 336 337 338 338 337 337 337 335 333 333 333 333 333 333 333 333 333 333 333 333 334 333
313 311 308 309 310 310 312 313 314 315 314 315 314 313 317 323 327 327 329 336 337 335 338 341 343 344 343 342 342 342 343 343 343 343 343 343 343 342 341 341 340 340 340 339 340 340 340 340 340 339 339 339 338 338 338 339 338 338 338 338 339 339 339 339 339 339 339 339 339 339 340 339 338 336 335 336 338 339 339 338 337 336 334 333 333 333 333 333 334 335 334 334 334 333 333 333 333
311 311 310 310 310 310 310 312 314 314 314 315 314 316 322 325 328 329 332 335 334 335 339 341 341 342 342 340 341 342 342 342 342 342 342 342 342 342 341 340 340 340 340 339 339 339 340 339 340 340 339 339 338 338 339 339 338 337 338 338 337 337 337 338 338 338 339 339 340 339 339 338 337 336 334 335 337 338 338 338 336 335 334 333 334 333 333 333 335 336 335 335 334 334 333 333 333
310 310 311 310 310 311 310 311 314 314 314 315 315 318 324 327 328 329 332 335 334 335 339 340 340 342 341 340 340 340 341 342 342 342 342 341 342 342 341 341 340 340 340 340 339 339 339 339 339 340 339 339 339 339 338 338 337 336 338 338 336 335 336 337 338 339 339 339 338 337 337 337 337 336 334 334 334 335 337 337 335 335 333 334 335 335 333 334 336 337 336 334 334 334 333 333 334
312 311 311 310 309 311 312 313 314 314 314 315 314 319 327 329 329 331 331 334 336 337 339 340 340 340 340 340 340 340 340 340 342 343 342 341 342 342 341 341 340 339 339 340 340 340 340 339 340 339 339 339 339 338 338 337 337 336 336 337 336 336 336 336 337 337 337 336 336 335 335 336 336 335 334 334 333 334 336 336 336 335 335 336 336 335 335 335 336 337 335 334 333 334 334 335 335
314 312 311 310 309 310 313 314 314 315 316 317 318 323 329 331 331 332 331 332 335 337 339 339 338 338 339 340 341 341 341 340 341 342 342 342 342 342 341 340 339 339 339 339 339 340 340 339 340 340 339 339 338 337 337 336 336 336 336 336 336 336 336 336 335 335 335 334 334 333 334 336 337 335 334 335 334 335 336 335 336 335 335 336 335 334 336 337 337 336 335 335 335 335 335 335 334
313 312 310 310 310 311 313 315 314 315 317 320 322 325 330 331 331 331 331 332 334 335 337 338 338 336 337 340 341 341 341 340 340 341 342 342 342 341 339 339 338 338 338 338 339 339 339 339 339 339 339 338 338 337 338 337 336 336 335 335 335 335 336 335 335 335 334 334 334 333 335 336 336 336 335 334 335 336 336 335 336 336 336 336 335 334 334 336 336 336 335 335 335 335 335 335 334
313 312 310 309 310 312 313 315 315 314 317 319 322 326 330 331 331 331 331 332 333 333 334 334 335 335 336 338 339 340 340 340 340 341 342 342 341 340 338 338 337 337 338 337 337 338 338 338 338 338 337 337 337 337 337 337 336 335 335 335 335 334 335 335 335 335 334 334 334 333 334 335 335 335 335 335 335 336 336 337 337 337 337 336 335 334 334 334 335 336 336 336 335 334 334 335 335
313 312 309 308 311 312 310 313 316 317 318 320 322 326 330 331 330 330 331 331 332 331 331 332 334 335 335 336 337 337 338 339 339 339 340 340 339 338 337 337 337 336 336 336 336 336 336 336 336 337 336 336 336 336 336 336 336 335 333 333 334 334 335 334 334 334 333 333 334 334 335 335 335 335 335 336 336 335 336 337 337 337 337 336 335 334 335 335 334 335 335 335 335 334 334 334 334
313 313 310 310 311 312 311 314 317 319 321 323 322 321 326 331 331 331 331 331 332 331 331 332 333 334 334 335 336 336 335 336 337 337 337 337 337 336 336 336 336 335 335 335 334 335 334 335 335 335 335 335 335 335 335 335 335 335 334 334 333 333 333 333 334 333 333 333 334 334 334 334 334 335 335 335 335 335 336 337 337 337 337 337 335 335 335 335 335 335 335 336 335 335 334 334 335
312 314 313 312 313 313 315 316 316 317 319 323 321 315 320 330 331 332 331 331 332 331 331 333 334 334 334 336 336 335 334 335 335 336 336 336 336 334 334 335 335 335 334 334 333 333 333 333 333 334 334 334 334 335 335 334 335 335 335 335 334 334 333 333 334 334 333 333 334 334 333 334 334 334 334 335 335 335 336 336 337 337 337 337 335 334 334 334 335 335 335 336 335 335 335 334 335
311 313 314 314 314 313 315 316 315 313 315 322 321 314 318 328 330 332 332 331 332 331 331 332 333 333 333 334 335 334 335 334 334 334 334 334 334 333 333 333 333 333 333 333 333 332 333 332 332 333 333 333 334 334 334 334 334 334 334 335 335 335 335 335 334 333 333 333 333 333 333 333 333 333 333 335 335 335 335 335 336 337 337 337 336 334 333 334 334 334 334 334 335 335 335 334 335
311 313 314 313 313 313 315 315 314 314 316 319 320 315 317 323 329 332 331 331 332 330 331 332 332 333 334 333 333 332 332 332 331 331 331 332 332 332 332 331 331 332 332 332 332 332 333 332 333 333 333 333 333 334 334 334 334 333 334 335 335 335 336 336 335 334 333 333 333 333 333 333 333 332 333 334 334 334 334 335 335 336 336 336 335 334 334 334 333 333 333 334 335 335 335 335 334
313 314 313 313 313 313 314 314 313 314 316 313 315 316 315 320 328 331 331 332 331 331 332 333 332 332 332 332 331 330 329 329 329 328 329 330 331 331 331 331 331 331 331 332 332 332 332 333 333 333 333 333 334 334 334 334 334 334 334 334 335 336 336 336 336 335 334 334 333 333 333 332 332 332 332 333 334 334 334 335 334 335 335 335 335 335 335 334 334 334 334 335 334 334 335 335 335
313 313 313 313 313 313 314 314 312 313 314 311 312 313 313 320 327 328 330 331 331 332 332 331 331 330 329 329 328 328 327 326 326 326 327 328 328 329 329 330 330 330 330 331 331 332 331 332 332 333 333 333 334 334 334 334 334 334 334 334 334 336 336 336 335 335 334 333 332 331 331 331 331 331 332 333 334 334 334 334 334 334 335 335 335 335 336 335 336 336 336 336 334 334 335 335 335
313 312 313 312 312 313 314 314 313 312 313 311 311 313 314 319 324 327 330 330 331 332 331 330 330 328 327 326 325 325 324 324 323 324 325 325 326 326 327 327 327 327 327 328 328 329 329 330 331 332 332 332 333 333 334 334 334 334 334 334 334 335 336 336 334 334 333 332 331 331 331 331 331 331 332 333 333 334 334 334 334 334 335 335 335 335 336 336 336 336 336 336 335 335 335 335 335
313 313 312 311 311 312 312 313 313 313 312 312 312 315 314 316 324 330 330 330 331 331 331 330 329 327 325 324 323 322 322 321 321 321 321 323 323 324 324 325 324 324 324 324 325 326 327 327 328 330 330 331 332 332 333 333 334 334 334 334 334 335 335 336 335 333 332 332 332 332 332 332 332 332 332 332 333 333 333 334 335 334 335 335 334 334 335 335 336 336 335 335 335 335 335 334 335
313 312 311 310 310 311 312 312 313 312 313 313 315 315 315 319 327 330 330 330 331 330 329 328 327 325 324 322 321 320 319 319 319 319 319 321 321 322 322 322 322 322 322 323 323 324 325 325 325 327 327 328 329 330 332 332 333 333 334 334 334 334 335 335 335 334 333 333 333 332 332 332 333 332 332 333 332 333 333 334 335 335 335 334 334 334 335 335 335 335 335 335 335 334 335 334 334
312 311 310 310 311 313 313 312 313 314 314 316 316 314 319 327 330 330 332 331 329 328 327 326 324 323 322 321 319 319 318 318 318 317 318 319 320 320 320 321 321 321 321 321 321 322 323 323 323 324 325 325 326 327 329 330 331 332 333 333 333 334 334 335 335 334 334 334 333 332 330 330 332 332 332 333 333 333 333 333 334 335 335 334 334 334 335 335 335 335 334 334 334 334 334 334 334
312 312 311 310 310 312 313 312 311 313 315 316 317 317 322 329 331 331 330 328 327 326 324 323 323 322 321 320 319 318 317 317 317 317 318 318 318 319 319 319 319 320 320 320 320 320 321 321 322 322 323 323 324 324 326 327 329 329 330 331 332 333 333 334 334 334 334 334 334 333 331 331 332 332 332 333 332 333 334 333 334 334 335 335 334 334 335 335 335 335 334 334 334 334 334 335 334
313 313 311 310 311 311 312 314 315 314 315 318 322 325 327 330 331 330 329 327 326 324 323 322 321 321 321 319 318 317 316 316 316 316 317 318 318 318 318 318 318 319 319 319 319 319 319 319 320 321 321 322 322 323 324 325 327 328 329 330 330 332 332 332 333 334 334 334 334 334 334 333 333 332 332 332 332 333 333 333 334 334 334 335 334 334 335 335 335 335 334 334 334 334 335 335 334
312 311 310 312 313 314 312 315 319 315 315 322 326 330 332 331 331 330 329 328 326 324 323 322 321 321 320 319 317 316 316 316 316 316 316 317 317 317 317 317 317 317 318 318 318 318 318 318 319 319 320 321 321 322 323 324 325 326 327 328 329 331 331 332 333 334 335 334 334 334 334 333 332 332 333 333 332 332 332 333 334 334 334 335 335 335 335 335 335 335 334 334 334 334 334 335 333
312 310 312 313 314 316 312 313 316 313 316 324 325 328 332 331 331 331 329 329 327 325 324 322 321 321 319 317 316 316 316 315 314 315 316 316 315 315 315 315 315 316 317 317 317 317 318 318 318 318 319 319 320 320 321 322 323 324 326 327 328 330 330 331 332 333 333 333 333 333 332 331 331 332 333 333 332 331 332 333 333 333 334 334 334 335 335 335 335 334 333 334 335 335 334 334 333
312 311 313 313 312 314 312 312 314 312 317 325 324 326 330 326 328 332 331 329 327 325 324 323 322 320 318 317 316 315 315 314 313 313 314 315 314 314 314 314 314 315 316 316 317 317 317 317 317 317 318 318 318 319 320 321 322 323 324 325 326 328 329 330 331 331 332 332 332 331 330 331 331 332 333 333 332 332 332 333 333 333 334 334 334 335 336 334 333 333 333 334 335 335 334 333 333
313 312 312 313 312 312 312 312 313 311 316 324 325 325 325 323 327 332 331 328 326 325 324 322 321 319 317 316 315 314 314 313 312 311 312 313 313 313 314 314 314 315 315 316 316 316 317 316 316 317 317 317 317 318 318 319 320 321 322 323 325 327 328 330 331 331 331 331 331 331 330 331 332 332 333 333 332 332 332 333 333 333 334 334 335 335 335 333 332 332 333 333 333 335 334 333 333
311 311 310 312 312 313 313 313 312 311 313 320 324 323 322 324 328 330 329 327 325 324 323 321 318 317 315 314 313 313 313 312 312 311 311 312 312 313 313 313 314 314 314 315 315 316 315 315 316 316 317 317 317 317 317 318 319 320 321 322 324 326 328 329 329 330 331 331 330 330 330 331 332 332 333 333 332 333 333 333 333 333 334 334 335 335 334 334 333 333 333 333 334 335 334 333 333
312 312 310 311 312 312 313 313 313 313 312 315 319 320 325 329 329 329 329 327 325 324 322 319 318 316 314 313 313 313 312 312 311 311 311 312 313 313 312 312 312 313 313 314 314 315 315 315 316 316 316 316 316 316 317 317 319 319 320 321 323 325 326 328 329 329 330 330 330 330 330 330 331 332 333 333 333 332 332 333 333 332 333 334 334 334 334 335 334 332 333 334 334 334 334 333 333
Wind_Speed
2 4 6 6 3 5 6 5 5 3 4 7 7 6 1 3 2 4 3 1 1 3 4 4 2 4 4 4 5 7 11 9 6 3 1 5 7 11 12 17 21 21 22 22 22 23 23 25 26 25 24 24 24 25 24 23 23 22 20 20 20 19 20 20 19 19 18 19 19 19 18 19 21 21 20 19 19 18 19 19 19 18 18 18 19 19 19 19 19 19 19 18 18 18 17 17 17
3 4 6 5 4 6 3 2 5 3 5 7 7 5 2 4 3 4 0 3 4 5 4 3 1 2 4 5 4 2 9 11 9 6 5 7 10 10 13 19 21 21 22 22 22 22 21 24 26 26 25 24 24 23 22 21 21 20 20 20 19 19 19 19 19 19 19 20 20 19 19 20 20 19 20 20 20 20 19 19 19 18 17 17 18 19 19 18 18 17 16 17 18 17 16 16 15
4 4 5 6 5 5 2 3 6 5 6 7 5 2 2 3 5 3 4 5 6 5 2 1 1 1 5 5 1 2 6 8 8 7 7 9 10 11 17 20 20 21 21 21 21 21 20 22 26 26 25 25 24 24 23 21 20 20 20 19 19 19 18 19 19 19 19 20 19 19 19 20 19 18 21 21 20 19 19 18 18 18 18 16 17 18 18 17 16 15 14 16 16 15 14 14 13
5 4 5 6 5 4 4 5 6 6 6 7 3 4 2 2 3 4 4 6 7 3 1 2 2 2 3 1 2 4 7 7 7 6 7 8 10 16 19 20 20 19 20 21 20 20 19 22 26 25 25 26 25 24 24 22 21 21 19 19 19 18 18 19 20 19 19 18 18 18 18 19 19 20 21 21 19 19 18 18 17 18 18 17 16 16 16 15 15 14 13 14 13 12 12 12 12
5 5 5 6 4 2 4 4 4 7 6 5 2 5 2 2 5 3 4 6 5 2 1 3 1 4 2 7 4 1 5 4 6 6 7 9 13 19 20 19 20 18 19 20 20 20 19 23 25 24 25 25 25 24 24 24 23 21 19 19 18 18 19 19 20 20 19 19 19 19 18 17 18 21 21 19 19 19 18 18 17 18 18 18 17 16 15 14 15 14 14 13 12 12 13 13 12
5 6 5 6 3 1 4 5 5 7 6 4 3 4 5 3 3 3 5 5 2 3 2 4 1 3 5 7 6 6 4 1 6 6 8 12 15 18 19 20 19 18 19 19 20 19 20 24 25 24 25 25 25 24 24 24 23 20 19 19 18 19 19 20 21 20 19 20 20 19 18 17 17 19 20 20 21 19 18 18 18 17 16 17 16 15 14 15 16 15 14 13 13 14 14 13 13
6 6 5 6 2 2 6 7 6 6 3 2 5 2 3 1 4 5 5 3 1 1 1 2 3 2 5 5 6 9 6 2 3 7 10 14 17 17 18 18 18 18 19 19 18 19 22 25 25 25 25 25 24 24 24 23 22 19 19 19 19 19 19 19 19 18 19 20 20 19 18 18 17 17 18 20 20 19 19 18 17 16 15 15 14 13 14 16 16 15 14 14 14 14 14 13 12
7 5 2 5 4 4 7 7 6 4 1 1 4 4 3 5 6 6 6 3 1 2 2 0 5 4 5 4 3 8 7 5 5 10 13 16 18 17 17 17 18 19 18 18 18 20 22 24 25 24 25 25 24 24 23 22 21 19 19 19 19 19 18 19 18 18 20 20 19 19 17 17 17 17 17 18 18 18 17 16 17 17 16 15 13 12 15 16 15 15 14 15 15 14 13 12 11
8 5 1 5 5 4 6 7 6 5 4 3 3 4 6 7 6 7 6 4 3 3 3 3 5 3 7 6 6 7 6 6 9 13 14 16 17 17 17 17 19 19 18 18 18 19 20 23 24 23 24 24 23 23 22 22 21 19 19 19 18 19 19 18 18 19 19 20 19 18 16 16 17 17 16 16 17 17 15 16 17 17 16 14 12 13 15 14 14 15 15 16 15 13 12 11 11
6 5 3 4 5 5 7 6 4 4 4 4 4 4 5 6 6 6 7 5 3 4 3 4 3 3 8 7 7 6 4 7 11 14 14 16 16 16 16 17 18 18 18 18 18 18 19 22 23 22 22 22 22 21 20 21 21 20 20 19 19 20 19 18 19 19 19 19 19 17 15 15 15 15 14 14 15 15 14 16 16 15 15 13 13 14 14 13 13 14 16 16 14 13 11 10 10
5 4 3 4 6 6 6 4 4 3 1 3 3 2 4 5 6 6 7 4 4 4 5 6 5 7 8 6 5 5 5 8 12 15 16 16 16 16 16 16 16 17 17 18 19 19 19 20 20 21 22 22 21 20 21 21 21 21 21 20 21 21 20 20 19 19 20 20 19 16 14 14 14 14 13 13 13 13 13 15 14 13 13 13 14 15 13 12 12 13 15 15 14 12 10 10 10
5 4 4 5 6 5 4 3 2 2 2 3 1 3 4 5 6 5 5 6 6 6 7 7 6 8 7 6 5 6 6 9 12 15 17 16 16 16 16 15 16 16 16 18 19 19 19 19 18 19 20 21 21 20 21 21 22 21 21 21 20 21 22 21 20 19 20 20 19 16 14 14 14 13 12 12 12 12 13 15 14 13 13 13 15 14 12 11 11 12 14 14 13 12 10 10 10
6 4 5 5 4 4 3 3 2 2 3 3 3 6 5 4 4 3 3 6 8 8 8 5 6 6 5 6 5 7 8 10 13 15 17 16 15 15 15 15 15 15 16 18 19 19 20 19 18 19 19 20 21 21 21 21 22 22 22 20 20 21 22 22 20 19 20 20 19 16 15 15 14 12 12 11 11 11 12 14 14 13 13 14 15 13 12 11 11 11 12 12 13 12 11 10 10
5 3 5 5 3 3 4 4 2 4 3 5 5 7 4 1 2 2 4 7 7 6 9 5 4 6 6 6 5 6 9 12 14 15 16 15 15 15 14 15 15 15 17 18 18 20 20 19 20 20 19 19 20 20 20 21 22 22 22 20 19 21 21 21 20 19 19 19 19 17 16 15 13 12 11 10 11 11 12 14 14 14 14 14 15 13 11 11 11 11 11 12 12 12 11 11 11
4 2 4 5 3 4 5 4 2 4 3 6 5 8 2 2 2 2 2 4 7 6 7 5 0 2 5 4 4 8 12 15 16 16 16 15 15 14 15 14 14 15 16 17 18 19 19 19 20 20 20 20 19 18 17 19 21 22 21 19 19 20 20 20 20 19 18 19 19 18 16 15 13 11 9 9 10 10 11 13 14 15 14 15 16 13 11 11 12 11 10 12 13 12 11 11 11
4 3 4 5 5 4 5 4 3 4 4 7 6 8 2 4 2 1 2 1 7 5 3 5 2 1 4 2 5 15 17 18 18 17 16 15 15 14 14 13 14 15 16 17 17 18 18 19 20 19 19 20 19 19 17 16 19 19 18 18 17 18 20 20 19 17 18 20 20 18 16 14 12 10 8 9 9 10 10 12 14 15 14 16 16 14 12 11 12 11 11 13 14 12 11 11 11
4 4 6 5 5 4 4 7 5 2 6 7 7 9 5 4 3 2 2 2 8 7 5 7 5 4 6 6 12 20 20 18 19 17 16 16 15 14 14 14 14 15 15 15 16 16 15 16 17 17 18 18 18 18 18 16 16 16 16 16 15 17 18 18 17 16 18 20 19 18 17 15 13 12 10 10 9 9 9 11 14 15 15 18 17 15 14 11 11 11 11 13 14 13 12 11 11
5 5 6 5 6 4 3 5 2 2 4 6 7 8 8 3 3 2 3 5 8 9 8 8 7 7 8 10 16 20 19 19 18 17 16 15 14 14 13 13 13 13 14 13 13 13 12 13 14 15 16 15 15 16 17 16 16 15 15 15 14 15 16 16 16 16 17 18 17 16 16 15 14 13 12 11 9 9 9 10 13 16 17 18 18 16 15 12 11 12 12 14 14 14 12 10 10
7 5 6 6 5 2 1 0 2 2 4 6 6 7 8 4 3 1 4 7 9 8 8 7 7 8 7 12 16 18 18 17 17 15 15 14 13 13 12 12 11 11 11 10 11 11 11 11 11 12 14 13 13 13 14 14 15 15 15 15 14 14 15 16 16 16 16 16 15 14 14 14 12 11 13 13 11 11 9 10 13 16 18 19 18 17 15 13 11 12 13 14 15 13 10 9 9
8 6 6 6 5 2 1 2 2 3 6 6 6 7 5 4 4 4 3 8 7 6 7 6 7 8 9 12 15 17 17 16 15 14 14 13 12 12 11 10 10 10 9 10 13 14 12 12 11 13 16 15 13 11 11 12 14 15 14 14 14 15 15 16 16 15 15 15 14 14 12 13 12 10 12 13 13 12 10 10 12 14 15 17 18 16 14 13 12 12 13 15 13 9 7 7 8
6 7 7 4 2 4 3 3 3 2 5 6 7 7 4 4 4 3 4 8 6 5 6 5 7 10 12 13 14 16 15 15 15 14 13 11 11 11 10 8 7 8 10 12 15 15 14 16 16 17 20 20 18 15 13 13 14 13 14 14 14 14 14 15 15 14 14 15 14 12 11 12 12 11 12 12 12 12 11 10 10 11 11 14 16 13 12 13 12 13 14 14 10 7 6 6 6
5 8 11 5 2 5 3 3 1 2 4 6 7 6 5 5 1 1 3 3 5 5 4 4 7 10 13 14 14 14 14 14 14 13 12 11 10 10 8 7 5 7 10 11 12 13 15 17 16 17 21 21 20 20 17 16 15 14 14 14 14 14 14 14 14 14 13 14 13 11 10 12 12 11 11 11 11 12 12 11 10 10 10 12 13 11 12 12 11 13 14 12 8 7 7 6 6
7 8 10 8 8 6 2 2 1 2 6 7 6 6 6 5 1 1 2 3 6 5 2 3 8 9 13 14 14 14 13 12 12 12 12 11 10 9 8 7 6 8 10 11 12 14 16 17 15 15 20 21 20 21 18 16 15 14 14 15 15 14 14 14 14 13 12 13 13 12 11 11 11 11 11 10 10 11 11 10 10 10 10 11 12 12 12 12 11 12 12 10 8 8 7 6 6
10 8 8 10 10 8 6 4 4 4 7 7 6 6 6 4 2 2 1 4 4 2 0 4 9 10 13 14 13 13 12 12 11 11 10 9 9 9 8 7 7 9 10 11 12 14 14 15 15 16 19 19 19 19 16 15 15 14 15 15 15 15 15 14 14 13 12 13 13 13 13 11 11 12 11 10 10 10 9 10 10 10 11 11 11 11 12 12 10 10 11 10 9 8 7 6 5
13 10 7 8 8 7 7 5 6 6 6 7 6 6 5 1 0 3 4 3 2 2 4 6 10 11 12 13 12 12 11 11 11 10 8 8 8 9 10 9 8 9 10 11 11 12 13 14 15 16 16 16 16 15 14 15 15 15 15 15 15 16 15 13 13 14 13 14 13 13 13 11 11 11 11 10 9 9 9 10 10 10 11 10 10 10 11 12 10 9 10 10 9 8 8 7 5
12 14 9 8 8 7 6 6 7 6 6 6 5 6 2 2 2 3 5 3 2 3 6 8 9 10 11 11 11 11 10 11 11 10 8 8 9 11 12 11 9 9 10 10 12 12 13 15 16 16 15 14 14 14 14 14 15 15 15 14 14 15 14 13 13 13 14 14 12 13 13 11 10 9 9 9 8 9 9 10 11 11 11 10 10 10 11 11 10 9 10 9 9 8 8 7 6
7 14 12 10 9 7 7 7 7 5 7 8 7 6 4 4 5 4 6 4 4 6 7 9 9 10 10 10 10 9 9 10 11 10 9 9 10 11 11 9 7 8 8 10 10 10 12 14 15 16 15 14 14 13 13 13 13 14 14 13 12 12 12 12 13 13 14 13 12 12 12 11 10 8 8 8 8 9 10 10 11 11 11 10 10 10 10 11 10 9 9 9 9 8 7 7 6
3 9 11 11 11 8 9 9 8 7 6 6 7 6 5 6 6 5 8 6 5 7 8 9 9 9 9 9 9 8 9 11 11 10 10 10 9 9 9 8 8 8 7 7 7 7 10 12 12 13 14 13 11 10 11 11 12 12 13 12 11 11 11 11 11 12 13 12 11 12 12 11 10 9 9 9 9 9 10 10 10 10 10 10 10 10 10 10 9 9 9 8 8 8 7 7 6
5 6 8 10 10 9 11 11 8 7 5 4 6 7 8 8 4 8 7 5 4 5 7 9 8 8 8 8 8 8 9 11 10 10 10 8 6 6 7 7 7 7 5 6 7 7 10 11 11 12 12 12 10 10 10 10 11 11 11 11 10 10 10 10 10 10 11 10 10 12 12 12 11 10 9 9 9 9 9 10 10 10 10 10 10 11 11 10 9 9 9 9 8 8 7 7 6
8 8 7 7 8 9 12 11 8 8 5 3 7 7 9 8 9 7 4 3 4 5 7 8 7 7 7 7 7 8 9 9 9 8 8 5 4 4 5 5 5 6 5 6 8 10 11 11 11 11 10 10 9 9 10 10 11 11 9 10 10 9 9 9 9 9 10 10 11 12 11 11 12 10 10 10 10 9 10 10 10 9 10 10 10 11 12 11 10 10 10 10 9 9 8 7 6
9 10 7 6 6 8 12 10 10 10 5 5 10 6 7 10 10 5 4 4 5 5 7 7 6 5 6 6 6 7 7 6 6 7 6 5 4 3 3 3 3 5 5 5 7 9 11 9 9 10 9 9 9 9 9 9 9 8 7 8 9 9 8 9 8 8 9 10 11 12 12 12 12 11 10 10 10 9 9 10 10 8 9 10 10 11 12 12 11 11 11 11 10 10 9 8 8
8 9 8 7 6 8 12 10 11 10 6 8 11 5 8 10 9 5 4 5 4 5 7 6 6 5 5 6 6 5 6 5 5 6 5 4 4 3 3 2 2 4 5 5 6 7 9 9 8 10 9 9 9 9 9 9 8 7 7 8 9 9 9 9 8 8 8 10 10 11 12 12 12 11 10 10 9 10 9 9 9 9 9 10 10 11 12 13 12 12 12 12 12 11 10 9 8
8 8 8 9 9 8 11 10 10 8 7 11 12 5 7 9 8 7 5 6 5 6 7 7 6 5 4 6 6 5 5 4 5 5 4 4 3 2 2 0 1 2 4 5 6 6 8 8 9 10 10 9 9 9 9 9 8 8 8 8 9 10 11 9 8 8 8 9 10 11 11 12 12 11 11 10 10 11 11 11 12 12 11 10 10 11 12 13 12 12 12 12 12 11 10 9 8
8 9 7 9 11 8 10 10 10 9 8 12 12 3 8 9 8 9 5 4 6 6 7 7 6 5 5 5 6 5 5 4 4 5 5 4 2 2 2 1 2 1 1 4 5 5 6 7 8 9 9 9 9 9 9 8 8 8 8 9 10 12 13 11 9 9 9 10 11 11 11 11 11 11 12 11 11 12 12 13 14 14 13 12 11 11 12 12 12 12 12 12 11 10 10 9 8
10 10 7 8 11 8 10 11 10 12 11 12 11 5 9 10 9 10 7 3 4 5 6 7 6 6 5 4 5 5 4 3 3 4 5 4 3 2 2 2 2 3 2 2 4 5 5 5 6 7 8 9 8 8 7 8 9 9 9 9 11 13 13 12 11 10 10 11 13 13 12 12 11 12 12 11 12 13 13 14 14 14 14 12 11 10 11 12 12 12 12 12 11 10 9 8 7
12 12 8 9 10 7 8 10 8 11 13 11 11 8 9 9 9 9 8 7 5 6 5 6 6 6 5 5 4 5 4 3 3 3 3 4 3 1 1 3 4 3 2 0 2 3 3 3 4 5 7 7 7 7 7 9 9 10 10 9 12 13 12 13 13 13 12 12 13 13 13 12 12 13 12 12 14 15 14 14 14 14 13 12 12 11 10 11 12 12 12 12 11 10 8 7 8
12 12 10 10 12 9 8 10 7 7 8 7 8 9 10 10 9 8 7 7 7 7 6 5 5 6 6 5 4 5 4 3 2 2 2 3 2 2 2 3 4 3 2 1 1 2 2 2 3 4 6 6 7 8 8 9 9 9 10 11 13 13 12 14 16 15 14 14 14 13 14 13 13 14 14 14 16 16 15 14 14 15 14 13 14 14 11 10 11 11 11 10 11 10 8 9 10
11 11 10 9 11 9 9 9 7 4 5 6 8 9 10 9 9 8 6 8 8 8 7 6 5 5 6 5 4 4 3 2 3 2 2 3 1 4 4 4 5 4 4 2 1 1 2 2 3 4 5 5 7 9 9 10 11 10 11 13 15 14 14 16 16 16 16 16 16 16 16 16 15 16 16 16 16 15 15 14 14 16 15 14 15 16 14 13 13 12 11 11 10 11 10 11 13
10 9 9 9 9 10 9 8 7 5 4 7 11 8 9 9 9 8 7 8 9 8 8 8 6 6 6 5 5 4 2 3 3 2 0 1 5 7 6 6 6 6 6 5 4 3 3 3 3 4 4 5 8 10 9 10 11 11 14 15 16 16 16 16 15 16 18 18 17 18 18 18 18 17 16 17 15 15 15 14 14 15 14 15 16 17 16 15 15 14 13 12 12 12 12 12 15
9 9 9 9 10 11 8 7 9 6 4 8 12 7 7 8 8 8 7 7 9 10 10 10 8 8 7 6 5 4 4 2 1 2 4 7 9 9 8 8 8 8 8 7 7 6 5 5 4 3 4 5 7 8 7 7 7 8 12 12 13 15 16 17 16 17 19 19 18 18 17 18 19 18 16 17 14 14 16 15 14 14 15 15 16 17 17 16 15 15 15 14 14 14 13 12 15
10 10 10 10 12 10 8 10 10 6 5 10 13 8 5 6 7 7 5 7 9 10 11 11 10 9 9 8 7 6 5 4 3 4 7 9 9 10 10 10 10 10 9 8 7 6 5 5 4 3 3 4 4 5 5 5 5 6 8 7 8 12 15 16 17 18 19 19 18 18 18 18 20 19 16 16 14 13 15 15 14 15 15 15 16 17 17 15 14 16 17 16 15 15 13 13 14
9 11 9 10 14 10 11 15 11 7 7 11 11 7 7 6 7 7 5 8 10 9 10 11 10 10 9 9 8 8 7 6 6 7 9 10 11 12 12 12 12 12 10 8 6 6 5 5 4 3 3 3 3 3 4 4 4 5 7 8 8 10 13 15 17 19 20 19 19 19 19 18 19 19 17 15 14 13 13 14 14 15 15 15 17 18 18 17 16 16 19 18 16 15 13 13 13
8 11 9 7 12 11 13 15 11 7 7 10 9 6 7 8 6 7 7 10 12 10 11 11 10 10 9 9 9 8 8 8 9 10 11 12 13 13 13 14 13 13 12 10 8 7 6 6 6 5 4 3 2 1 2 3 3 4 6 8 10 11 12 14 16 19 21 21 19 17 17 17 19 19 16 13 12 13 13 14 14 14 15 15 17 19 19 19 20 20 21 20 17 15 14 13 13
7 13 12 8 9 11 13 13 10 6 6 9 10 7 6 8 6 7 8 11 13 11 10 10 10 11 12 12 11 11 10 9 10 10 11 13 13 13 13 13 13 13 13 13 12 10 8 6 6 5 5 3 2 2 1 1 3 4 5 7 9 11 11 12 14 15 17 19 17 16 15 16 17 17 16 14 12 12 13 13 14 14 15 15 17 20 20 20 21 22 22 20 17 15 15 14 12
5 11 13 10 9 9 11 10 8 7 6 9 11 9 7 8 7 8 8 10 12 11 10 10 11 12 12 12 12 11 11 11 11 11 11 13 13 13 13 13 14 14 13 12 12 12 10 8 6 6 5 4 2 1 1 2 4 5 6 7 8 8 8 9 10 10 11 14 15 15 14 13 13 13 15 15 13 13 14 14 14 14 15 16 16 17 18 19 19 18 18 18 17 15 14 13 11
6 9 9 8 7 6 7 8 7 7 7 10 13 12 8 7 8 8 8 8 10 9 9 9 10 11 11 11 11 10 10 10 11 11 13 14 14 14 15 15 16 15 14 13 12 12 11 9 8 8 7 5 3 1 2 3 4 4 6 7 9 7 5 6 6 6 8 10 11 13 12 11 12 12 12 14 14 13 14 14 14 15 15 16 16 16 16 17 16 15 14 14 15 14 13 12 11
8 10 8 7 7 6 5 7 7 7 8 10 15 14 9 7 8 6 5 6 8 9 8 9 9 10 10 9 9 10 9 9 9 11 13 14 15 15 15 15 16 16 15 15 14 13 12 11 10 9 8 7 5 4 5 6 5 5 6 8 9 6 4 4 4 4 6 8 10 11 9 9 11 12 12 13 15 15 15 15 15 15 15 15 16 15 15 15 15 14 13 13 14 13 13 12 11
9 10 9 8 8 6 6 6 7 9 8 9 13 11 9 8 7 6 7 6 7 8 9 10 10 10 10 8 9 9 9 9 9 10 11 13 14 15 16 16 16 15 15 15 14 13 12 12 12 10 9 9 8 7 7 8 8 7 8 8 8 5 4 5 5 6 7 8 10 9 8 8 9 11 12 13 15 16 15 15 15 15 16 17 17 15 14 14 14 13 13 13 14 14 14 13 13
11 11 10 10 8 7 9 9 9 9 6 7 11 10 7 4 7 9 10 9 9 9 10 10 10 10 10 9 9 9 8 9 9 9 10 11 13 15 15 15 15 15 15 15 14 13 12 12 13 11 11 11 10 9 9 9 9 9 9 9 8 6 5 6 7 8 8 8 10 10 9 9 10 13 15 15 15 16 15 15 16 16 17 17 18 16 14 14 13 14 15 15 16 16 15 15 14
12 11 12 11 9 9 10 10 11 9 4 6 8 10 7 6 8 10 11 10 11 11 11 11 11 10 10 9 9 9 9 10 10 9 9 11 13 14 15 14 14 14 14 14 14 13 12 12 12 12 11 11 11 10 10 9 9 10 10 10 9 8 7 7 8 9 10 10 10 12 12 13 15 17 17 16 17 17 16 17 18 17 17 16 17 17 15 14 14 15 16 17 17 16 16 16 15
12 11 11 11 9 9 9 9 12 11 7 7 7 7 7 7 8 11 12 11 11 11 10 10 10 9 9 9 9 10 10 9 9 9 10 12 14 14 14 14 14 15 15 15 14 14 13 12 12 12 11 11 11 11 10 10 10 10 10 10 10 10 8 8 10 11 12 13 13 13 14 15 18 20 17 15 16 17 17 18 19 19 18 16 16 16 15 14 15 16 17 18 18 16 16 17 16
10 10 11 11 10 9 6 3 4 7 9 7 4 2 3 6 10 12 12 11 12 11 10 10 9 8 8 9 9 9 9 8 9 9 10 12 14 14 14 14 15 15 15 16 15 15 14 14 13 13 12 12 12 12 11 11 11 11 11 11 11 10 9 10 11 11 12 14 15 14 13 13 16 19 16 13 15 17 18 18 18 19 19 17 16 15 14 15 17 19 18 17 18 16 16 17 16
7 9 10 5 7 8 6 2 3 6 8 6 4 4 5 6 9 11 11 11 12 11 10 9 9 9 9 9 9 8 8 9 9 9 10 12 14 14 14 14 15 15 16 16 16 16 15 14 15 15 14 14 14 13 13 12 12 12 12 11 12 11 11 11 11 11 11 12 13 13 12 13 14 15 14 12 15 17 18 17 17 18 18 17 17 16 16 17 18 20 18 16 17 16 15 16 16
7 10 10 4 1 6 8 6 5 8 9 5 6 9 9 7 7 10 13 12 11 11 9 9 9 9 9 9 8 8 9 9 10 10 11 12 13 14 14 14 15 15 15 15 15 15 15 15 16 16 16 16 15 15 14 13 13 12 12 12 13 13 12 11 11 11 11 11 11 10 11 12 13 14 13 13 15 17 18 18 19 20 19 18 18 17 18 18 19 19 18 15 16 16 15 16 16
8 9 10 6 5 7 9 8 8 10 8 6 9 11 9 8 7 12 15 13 13 12 9 8 8 8 8 8 7 8 9 9 9 9 10 12 13 14 14 14 14 14 14 15 14 15 15 15 16 16 16 16 15 15 14 14 13 12 12 12 12 13 13 11 11 11 11 11 11 10 10 11 12 13 14 13 14 17 18 18 19 20 20 19 19 19 19 20 20 19 17 15 15 16 16 16 15
9 9 10 8 7 7 8 7 7 10 8 7 10 10 8 6 8 14 16 14 15 13 10 8 8 8 7 7 7 7 8 8 9 9 9 11 13 13 14 13 13 13 14 14 14 14 15 15 16 16 16 16 15 15 14 14 14 12 12 12 11 11 12 11 11 11 11 10 10 10 10 11 12 12 13 13 13 15 17 16 17 20 20 19 19 20 20 20 20 18 17 16 15 15 16 16 15
9 9 11 10 6 5 7 5 4 7 8 7 8 8 6 3 7 14 17 15 15 13 12 10 8 8 8 7 7 7 8 8 9 8 8 10 12 13 13 13 13 13 13 14 14 14 15 15 15 16 16 16 16 15 15 15 15 14 13 13 12 10 11 12 11 10 10 10 10 10 10 11 12 12 13 14 13 14 14 15 17 19 18 18 18 18 17 17 18 18 16 15 15 15 16 16 15
12 9 11 12 8 7 8 6 3 5 6 7 8 8 6 4 1 10 17 15 14 14 14 12 10 9 9 8 7 8 8 9 9 8 8 10 12 13 13 13 13 13 14 15 15 15 15 15 15 16 16 17 17 16 15 15 15 15 14 13 12 11 11 12 10 8 9 9 9 9 10 10 11 12 14 14 14 14 14 14 16 18 17 16 18 18 16 17 18 18 17 16 15 16 17 16 16
Wind_Direction
182 178 161 153 187 231 222 228 246 206 233 260 253 263 165 153 307 262 224 169 214 57 18 331 288 258 269 324 353 58 40 16 13 355 62 77 136 144 142 143 145 148 146 145 145 151 155 158 160 159 156 154 152 151 148 147 149 148 147 146 144 142 139 137 137 137 135 133 131 132 133 134 132 129 129 128 128 122 116 117 117 113 111 109 108 109 109 109 108 106 104 104 105 104 102 102 103
180 169 158 165 208 234 217 212 258 231 227 259 249 245 108 130 213 223 161 40 18 12 4 345 36 235 273 305 305 97 61 42 40 52 85 115 134 142 148 145 147 148 146 145 145 147 150 157 161 161 160 157 153 149 145 143 144 144 144 145 144 140 138 137 137 136 134 133 132 134 135 134 132 132 132 132 131 127 123 122 120 116 113 111 111 112 112 111 109 106 104 108 107 101 98 98 101
178 173 173 191 209 236 236 209 252 254 242 266 257 167 114 200 207 139 59 26 10 349 326 309 127 136 250 229 293 55 72 56 61 82 112 144 142 147 151 144 146 147 146 144 145 147 148 158 162 162 162 161 156 150 147 142 141 143 143 143 141 138 138 139 137 134 131 132 131 132 134 135 134 135 134 133 131 128 128 127 125 121 117 114 111 112 113 112 110 106 107 114 109 97 95 98 101
166 183 197 210 209 224 226 220 246 258 251 265 275 101 123 221 138 96 58 9 356 334 238 262 142 109 297 50 62 62 77 68 75 100 125 148 143 145 150 145 145 146 147 146 147 148 150 159 161 162 163 163 160 156 152 147 144 143 143 142 141 139 140 140 136 132 131 132 132 131 131 134 135 138 136 134 133 131 131 130 128 124 122 120 114 111 111 109 109 106 107 113 108 95 95 100 103
165 184 206 237 241 233 233 239 247 246 252 273 301 75 89 117 90 67 24 356 348 2 264 261 130 118 66 41 5 23 78 93 99 109 127 131 137 143 148 146 146 148 150 148 147 147 153 160 161 163 163 163 162 160 157 154 151 147 145 145 142 141 142 140 136 135 135 134 134 132 131 132 133 139 140 137 137 135 133 132 130 128 127 128 126 123 119 115 114 112 110 110 104 100 101 104 107
173 178 196 242 270 314 252 240 237 236 249 283 295 70 93 107 52 358 344 349 357 19 327 263 275 127 116 68 43 47 42 106 108 120 137 138 143 145 147 147 147 149 150 149 148 147 155 161 162 163 163 164 163 161 159 158 155 151 148 146 143 142 142 140 138 138 138 136 135 133 133 132 129 137 142 139 140 139 137 136 133 131 129 131 131 130 129 124 118 114 110 107 105 103 101 102 106
189 185 187 221 218 232 246 241 245 243 224 275 283 4 94 39 356 327 325 340 158 144 309 291 258 215 116 122 91 63 44 42 119 134 142 144 145 146 146 147 146 146 147 149 148 148 158 161 162 162 163 164 163 161 159 158 154 150 148 146 143 142 142 141 142 141 140 138 136 135 134 134 131 134 141 142 143 142 140 139 135 131 130 131 130 130 132 125 116 111 108 109 107 101 95 94 98
206 215 192 228 217 204 243 247 249 259 128 56 287 294 299 316 329 305 307 298 211 185 236 183 231 221 116 147 106 76 63 67 120 129 138 144 143 146 147 146 145 145 147 148 147 149 160 162 161 163 163 162 161 160 158 156 151 147 147 145 143 143 143 144 145 143 141 139 138 137 135 137 138 137 140 145 147 145 142 139 134 133 135 135 135 136 132 121 111 108 109 110 105 97 90 88 90
202 223 209 236 240 217 240 246 244 258 255 267 273 268 283 300 301 289 285 266 252 244 233 171 218 212 126 125 97 101 74 75 121 129 138 142 142 148 148 149 146 147 149 147 145 147 158 161 160 162 161 160 159 158 156 154 149 147 147 145 144 145 145 148 148 144 142 141 139 137 139 141 141 141 142 144 147 148 144 140 137 139 143 141 141 140 130 117 107 106 108 108 105 99 91 86 87
197 220 232 232 244 237 235 238 235 243 245 261 269 274 291 294 289 274 267 262 220 208 178 155 200 152 127 119 101 110 89 107 134 134 139 140 142 147 148 150 147 149 150 145 143 146 156 161 160 160 158 157 157 154 152 151 148 146 147 146 146 147 149 149 148 145 144 141 140 142 143 143 141 143 143 145 150 150 147 145 142 144 146 146 147 141 129 115 106 106 107 108 107 103 95 88 86
205 199 245 238 234 240 239 236 226 227 212 244 249 290 316 299 289 266 251 232 199 189 159 177 174 133 126 113 101 102 112 143 146 140 142 143 143 146 147 147 148 151 152 147 145 148 155 159 161 160 158 156 154 151 151 150 147 147 148 148 147 150 152 150 149 147 146 142 143 146 144 144 143 143 145 149 155 155 153 149 144 146 150 153 152 142 129 117 108 106 108 111 111 109 102 93 90
226 183 211 237 237 239 250 265 254 262 218 215 167 37 340 293 270 247 226 195 188 178 166 185 161 142 140 116 112 122 140 157 150 144 143 144 146 148 148 147 149 152 154 150 148 151 153 156 159 160 159 155 152 152 153 151 148 150 152 151 150 152 153 153 152 148 148 147 146 148 147 148 145 144 148 148 154 160 159 155 149 150 154 155 153 144 133 121 110 106 107 114 118 116 108 99 95
237 201 212 234 249 251 259 268 271 256 197 150 47 5 329 280 255 245 217 173 176 169 150 156 148 143 128 106 120 143 152 155 148 145 144 147 148 149 148 147 150 154 158 153 151 154 153 154 156 158 160 156 154 155 155 154 153 154 155 154 153 155 155 155 153 150 151 151 150 152 152 151 146 147 150 147 151 157 159 157 152 152 154 154 153 148 139 126 114 108 109 119 125 121 112 102 97
228 227 240 238 243 252 253 251 220 207 164 88 34 349 329 305 328 271 207 164 146 132 118 115 148 133 123 128 147 162 158 151 145 146 148 148 147 148 146 148 153 158 161 159 156 156 155 156 155 157 159 157 156 156 157 158 158 156 156 156 154 155 157 156 156 154 152 151 153 154 153 152 149 149 149 149 151 154 159 158 153 155 157 155 153 153 147 131 119 115 116 127 131 123 113 104 99
225 232 247 247 242 230 226 232 223 207 122 70 27 351 347 83 4 254 225 153 105 94 120 119 297 143 147 166 174 159 152 150 149 149 148 146 146 146 145 148 156 162 166 165 161 158 159 158 156 157 158 158 158 155 155 157 158 157 157 157 156 156 158 159 159 156 152 152 153 151 151 150 148 152 153 154 154 153 158 160 158 161 161 156 154 156 154 137 125 124 128 135 135 126 116 107 101
225 233 231 244 239 214 198 191 199 201 104 72 36 4 18 102 18 321 6 36 109 112 141 106 35 45 112 101 132 138 143 149 150 148 148 147 145 142 144 149 156 165 171 170 165 162 163 160 158 157 158 159 158 155 152 155 157 156 156 156 158 159 161 162 160 157 153 153 151 149 152 151 153 156 155 156 155 148 151 163 165 164 163 157 155 157 156 144 133 133 138 141 138 128 119 110 102
206 233 228 232 224 207 183 180 181 149 95 67 41 18 10 95 80 47 81 157 122 114 95 83 68 65 77 79 114 128 139 148 148 150 150 149 148 148 151 155 163 171 173 173 166 161 162 161 159 157 158 160 158 154 152 155 156 153 153 151 154 157 161 163 160 156 155 154 152 154 157 155 157 156 153 153 151 149 154 166 167 165 163 160 157 157 156 150 141 141 146 144 139 132 122 112 104
195 220 223 225 219 202 183 180 144 62 69 38 29 22 6 46 95 100 168 145 120 114 103 95 84 75 77 96 115 127 140 147 150 154 153 152 157 160 161 164 172 177 173 170 164 162 165 165 166 162 157 157 156 154 150 155 156 154 152 147 149 153 155 158 157 155 158 159 157 160 162 160 160 157 154 151 146 152 158 159 163 166 166 162 158 157 156 152 149 148 150 147 141 132 122 115 109
207 221 221 229 221 170 94 95 36 14 3 9 17 15 4 15 39 301 202 150 140 125 109 117 109 98 106 117 125 133 142 148 153 158 157 160 167 168 170 170 176 180 170 161 162 169 172 174 177 164 153 152 154 153 152 157 157 156 156 154 155 158 158 159 160 162 164 167 165 167 170 164 162 159 154 152 152 157 160 156 163 170 170 165 160 158 156 154 154 152 153 150 141 130 125 130 124
216 225 224 228 224 203 171 242 298 346 342 346 4 354 352 27 359 299 189 149 159 136 124 149 141 135 136 135 137 139 145 150 155 163 163 167 171 172 174 171 179 179 159 159 172 172 171 182 185 161 155 156 153 154 157 161 161 160 161 162 165 167 167 166 168 171 171 172 172 173 174 166 161 160 156 159 161 160 158 155 163 170 170 168 162 158 156 154 154 155 156 150 142 138 144 146 133
209 215 232 234 215 239 206 211 262 344 339 329 338 332 349 18 345 277 174 151 156 138 136 144 142 151 147 144 144 143 149 153 161 168 166 169 172 173 173 175 184 168 149 160 173 171 170 182 182 164 160 162 160 161 164 168 168 166 167 169 172 174 173 172 174 177 177 177 175 172 175 169 161 160 163 166 165 160 156 154 158 162 165 167 161 159 162 157 155 158 158 155 157 163 159 148 136
214 215 238 252 228 239 187 154 224 343 313 312 319 332 359 338 328 222 229 151 103 94 105 113 132 153 150 144 143 145 154 159 166 169 165 171 173 173 170 169 173 154 155 161 165 172 178 181 179 169 165 166 168 166 166 174 175 172 174 174 176 178 179 179 180 181 181 182 177 168 172 173 165 161 166 170 169 166 162 161 160 159 163 165 166 174 177 170 165 164 164 168 174 168 155 147 141
226 218 228 239 240 239 194 165 202 305 292 300 318 343 335 298 110 118 284 40 53 47 30 128 132 142 140 138 143 150 161 164 167 166 167 172 172 172 163 164 172 163 168 168 164 173 182 181 176 176 174 173 173 168 167 179 180 177 178 177 179 183 185 185 184 183 183 184 179 170 170 174 171 164 167 174 175 173 170 170 168 167 172 173 178 188 189 186 181 174 174 176 171 163 157 151 146
228 228 210 225 236 236 236 239 249 273 281 292 312 319 293 272 104 152 167 57 33 34 110 140 126 131 134 136 147 157 163 163 162 161 166 170 165 160 158 174 180 171 173 171 171 175 180 181 178 182 183 179 175 169 171 181 183 184 185 183 185 188 190 191 188 184 183 185 183 177 172 174 177 169 168 176 178 178 177 181 180 176 178 180 184 189 193 194 188 181 179 174 170 165 159 154 154
224 236 216 218 228 228 234 240 245 255 269 277 289 286 271 282 101 175 134 93 44 87 153 137 123 132 135 139 153 160 160 156 152 150 156 160 157 153 163 182 176 175 180 173 177 181 180 182 183 186 186 183 180 176 180 185 187 191 191 189 191 192 194 195 189 186 187 189 188 182 177 177 179 175 173 178 182 186 189 192 190 183 180 178 181 187 194 196 190 184 179 175 174 167 161 160 161
212 227 230 222 223 217 219 225 232 241 256 263 268 258 207 129 227 163 122 120 115 141 149 127 127 137 136 144 155 157 152 149 145 145 152 155 165 169 175 182 175 181 190 180 181 182 183 186 186 188 188 188 188 186 188 191 192 195 194 193 194 195 197 194 188 190 192 192 192 187 184 184 182 180 180 184 189 195 198 198 195 189 184 178 179 185 192 197 196 186 183 182 178 172 168 164 165
198 221 229 230 233 223 223 231 235 242 247 251 254 242 157 155 223 163 130 149 151 161 144 128 138 140 139 147 147 146 140 141 144 150 161 164 178 184 179 179 183 194 198 193 189 178 183 189 185 188 193 193 194 194 195 197 198 198 197 194 196 200 198 194 191 194 196 194 193 188 188 191 187 185 187 189 192 196 201 199 194 192 191 187 184 185 191 198 199 193 192 189 181 180 174 171 175
192 216 223 227 236 230 232 236 232 235 234 234 241 225 163 186 219 123 123 151 167 162 142 140 146 136 141 142 135 138 133 137 152 166 175 177 184 187 182 185 195 205 211 209 198 173 181 190 185 187 195 199 200 199 200 205 205 204 202 196 199 204 201 200 198 198 199 195 191 188 191 195 190 189 191 191 193 195 200 198 192 193 196 196 193 192 193 196 198 199 198 193 189 189 182 179 180
200 207 221 210 214 223 221 222 217 219 214 210 228 206 176 178 121 88 111 140 171 162 141 143 142 133 137 133 132 132 129 144 166 178 182 184 185 179 181 195 204 209 226 225 207 188 187 191 194 194 197 202 205 203 205 211 211 210 208 200 198 205 208 208 207 204 201 196 195 192 194 197 192 192 194 191 192 192 195 197 192 194 200 201 198 197 198 196 197 199 197 198 198 195 187 181 181
207 211 237 201 195 210 201 200 201 208 206 207 232 207 165 136 83 79 127 150 181 171 146 142 136 134 132 126 129 126 132 157 173 177 179 178 181 182 180 194 213 214 222 228 216 206 197 193 199 200 200 206 209 211 212 214 214 211 210 204 198 204 213 216 215 210 201 199 203 200 199 201 196 197 200 195 194 188 188 195 192 194 202 203 201 200 200 201 201 199 196 198 198 194 191 187 192
204 201 230 222 208 187 172 181 192 195 182 200 236 220 136 104 75 79 141 165 191 166 139 138 131 132 131 121 122 127 142 161 164 164 175 179 189 198 180 165 188 202 207 220 223 218 208 199 202 205 208 214 214 215 216 217 218 215 218 215 208 212 223 224 222 216 206 205 207 206 206 207 203 203 205 203 197 185 186 193 191 192 200 201 204 203 201 203 204 202 197 197 198 197 196 198 202
201 194 206 215 214 164 151 173 193 194 175 194 230 212 115 88 66 72 137 166 179 156 137 132 132 130 130 124 118 129 143 150 159 168 182 197 204 203 187 142 146 193 209 217 217 220 217 210 214 216 216 221 220 217 218 219 219 219 223 221 217 221 229 232 228 220 213 211 211 211 211 210 209 207 207 208 199 187 187 192 191 193 197 199 202 202 201 203 203 203 201 200 202 201 199 201 204
197 205 199 194 205 170 149 168 192 202 175 186 225 231 102 83 65 72 124 163 165 157 136 128 138 139 144 136 125 139 152 156 172 179 188 202 209 221 232 66 81 203 222 223 211 209 220 222 226 228 224 225 226 224 222 219 217 222 220 217 221 223 226 231 231 224 216 214 214 216 216 213 212 211 211 210 202 195 193 191 192 193 193 195 197 198 201 202 200 199 200 202 206 206 203 202 204
188 207 203 185 197 182 153 157 174 195 190 187 211 226 86 86 75 74 90 157 171 157 133 134 148 149 155 144 134 144 155 173 195 199 204 212 223 255 280 347 12 347 252 229 215 208 219 226 230 234 232 229 228 226 225 223 227 230 219 219 232 234 228 227 230 226 216 212 212 215 219 216 215 216 216 215 208 205 202 196 197 197 193 192 192 194 199 200 197 196 197 198 202 207 209 206 206
184 194 194 181 191 192 165 155 161 184 195 189 184 140 96 90 74 67 59 80 139 130 127 143 147 147 153 145 139 138 153 180 195 204 208 219 234 247 280 342 10 12 11 230 222 220 221 227 234 236 236 234 233 231 231 237 240 234 225 229 240 239 231 227 229 225 216 215 216 217 221 221 220 219 221 223 217 213 211 203 201 200 196 191 191 193 197 197 194 196 197 196 199 207 212 206 201
182 185 189 178 181 191 161 138 144 180 190 185 175 142 103 85 70 64 55 60 81 90 108 137 143 148 149 145 140 138 162 171 163 183 193 220 230 213 341 2 20 25 23 17 215 229 233 242 244 241 242 240 239 241 242 244 241 237 234 234 238 238 232 229 229 227 225 227 225 224 228 229 227 226 224 224 221 218 216 207 200 200 195 188 191 193 193 192 191 194 196 196 197 198 198 193 188
177 183 191 181 178 179 153 129 124 178 183 163 155 128 97 82 75 67 67 73 72 78 89 105 129 143 138 135 138 142 155 165 195 196 176 230 222 70 36 23 31 32 27 14 229 227 233 247 240 239 246 241 241 243 239 241 240 239 240 238 244 246 239 233 232 231 231 231 230 229 230 229 227 228 223 220 219 215 212 207 201 200 195 189 195 199 191 183 185 190 193 195 192 188 189 191 189
182 189 187 181 182 168 146 135 125 168 178 142 142 123 93 84 83 73 74 80 71 73 80 80 95 118 116 105 107 128 146 183 237 226 182 227 158 83 53 40 41 45 51 36 334 277 259 264 263 259 258 250 254 254 247 248 246 241 244 247 251 250 243 239 235 233 233 229 228 230 231 231 230 227 221 220 218 210 208 207 202 202 199 194 199 204 198 189 188 189 191 192 190 195 199 196 189
189 193 188 184 175 143 125 125 134 170 187 156 155 133 95 86 83 77 73 80 81 80 79 74 77 94 101 85 77 85 115 173 239 267 149 39 65 75 62 51 51 56 59 51 33 3 343 326 307 293 284 277 277 276 268 262 255 248 252 254 255 252 249 247 242 240 239 232 231 233 235 238 239 232 222 221 218 208 207 206 202 202 200 199 199 200 200 199 196 192 196 196 189 196 203 199 192
195 193 191 185 168 155 149 138 139 164 188 162 157 141 112 106 94 83 78 92 98 95 90 82 79 85 93 94 81 65 74 104 283 356 45 49 55 64 61 59 61 61 57 49 40 26 16 3 348 324 296 288 287 288 286 282 278 276 276 270 261 257 255 254 251 249 244 237 237 238 237 238 242 238 225 221 220 212 209 205 204 204 201 204 203 197 197 201 200 196 199 199 189 190 198 200 199
195 197 197 183 173 173 153 138 140 148 167 166 159 150 140 130 114 102 100 109 104 100 101 90 85 87 89 95 90 78 76 74 52 44 53 58 61 61 58 58 61 58 53 49 44 35 29 13 1 349 325 321 311 305 312 310 295 291 295 286 267 261 260 260 257 254 248 238 235 238 238 239 242 241 231 224 224 219 212 206 205 206 202 204 205 201 198 200 203 199 200 200 195 194 194 196 199
188 201 212 184 173 163 129 139 152 153 167 179 180 180 166 142 118 121 127 117 102 96 100 89 83 86 83 82 79 79 83 81 75 64 61 64 64 64 59 54 53 50 49 50 49 48 44 37 27 13 360 352 340 314 311 314 294 282 283 275 267 264 261 259 256 256 253 243 237 238 239 241 243 243 239 232 227 222 216 208 205 207 203 201 204 204 202 203 206 203 201 201 200 199 195 194 197
186 191 208 189 172 159 143 156 171 174 171 179 201 222 172 154 130 128 132 116 105 98 97 90 83 80 77 76 71 69 72 75 73 64 63 64 62 62 57 52 51 49 53 54 51 51 49 50 47 40 33 15 9 360 322 315 307 291 277 267 267 267 266 267 265 263 258 249 242 234 232 239 245 245 241 236 234 229 222 214 211 210 206 204 203 201 202 206 209 207 204 202 202 201 197 198 198
182 173 188 193 175 163 162 176 189 184 151 163 204 239 185 166 145 133 136 117 108 104 98 92 84 78 75 75 73 67 64 65 66 61 61 61 59 59 56 55 56 55 58 58 55 54 50 50 48 45 43 33 27 31 12 334 315 302 278 262 262 266 272 277 277 273 260 245 234 223 224 236 242 240 232 226 229 230 227 219 216 215 210 207 205 201 201 206 209 208 203 199 199 198 196 202 202
152 158 186 194 189 180 176 188 196 182 167 177 201 220 195 164 145 145 147 123 112 111 100 86 77 74 72 71 71 70 67 64 63 60 58 56 55 55 54 56 59 57 54 54 58 58 56 56 52 50 44 29 24 36 25 340 315 307 289 276 275 276 278 281 281 276 253 236 228 224 229 236 238 240 233 224 221 222 225 221 216 217 213 210 209 205 203 205 209 208 201 197 197 193 193 201 202
122 144 180 188 198 195 187 201 193 175 198 199 189 200 205 162 149 162 158 132 122 118 105 90 80 75 70 64 62 63 63 61 59 57 53 50 50 50 50 50 51 48 43 42 46 48 48 45 40 43 38 19 13 30 350 320 310 304 289 283 289 293 290 285 283 265 238 224 220 222 227 234 239 244 236 226 221 219 221 219 215 217 215 211 209 206 204 205 207 207 202 202 201 193 191 199 201
137 158 177 181 196 194 196 214 194 181 211 202 180 194 215 179 158 156 144 134 130 130 119 105 94 83 73 63 60 61 60 59 56 54 50 47 48 48 47 48 46 42 38 37 38 38 38 31 23 25 23 9 355 348 323 314 318 311 290 281 287 293 280 270 256 230 223 205 199 206 215 229 240 245 240 231 224 218 218 217 216 216 215 213 210 206 202 201 203 205 203 203 203 197 195 198 199
170 181 182 183 187 186 191 198 197 202 209 184 168 189 219 197 163 137 138 136 123 128 125 112 100 87 77 67 64 63 60 57 54 50 45 41 43 43 43 46 44 40 37 36 36 35 34 29 23 19 14 4 349 338 324 317 318 311 298 289 287 281 254 247 226 212 211 197 193 203 219 233 235 238 241 238 230 222 218 218 217 216 215 213 210 207 203 199 200 203 202 201 201 201 201 199 199
196 189 182 187 180 183 196 192 197 208 194 156 160 187 210 160 121 128 142 131 109 110 111 106 99 88 80 71 65 62 57 55 51 46 42 37 36 36 37 39 39 37 35 34 33 32 31 27 22 18 13 7 356 342 332 322 314 309 305 300 290 268 235 228 220 212 209 201 195 201 221 232 226 225 228 230 230 225 221 220 219 218 217 213 208 207 204 198 198 202 203 203 201 202 201 200 201
200 191 185 190 182 182 195 191 194 198 157 130 163 188 183 133 119 125 125 116 110 107 98 95 92 86 82 74 68 63 56 53 48 44 41 37 34 32 32 32 32 32 31 30 29 27 27 23 18 13 8 4 360 350 340 328 317 312 307 302 294 278 252 226 216 212 210 210 203 200 209 220 224 225 223 221 221 219 217 220 222 222 220 214 207 205 202 200 200 203 205 203 202 202 200 199 202
199 200 194 197 194 186 192 196 197 192 155 129 163 189 177 156 131 115 115 115 112 105 96 94 90 88 88 78 69 63 57 53 50 48 45 41 38 34 32 29 27 26 25 24 24 21 20 16 11 6 2 357 354 349 343 333 323 314 305 299 292 284 274 249 229 217 211 211 212 210 208 213 222 225 224 222 220 216 215 220 225 226 224 218 210 205 202 203 203 204 207 204 201 200 199 201 204
196 208 205 204 205 189 177 211 196 170 151 134 153 160 104 124 118 114 125 124 112 104 101 100 92 91 91 77 66 61 57 56 54 51 48 44 41 37 34 29 25 23 22 20 19 17 15 11 7 3 359 355 350 344 339 334 328 320 311 300 291 284 275 262 247 230 216 213 215 218 218 220 225 226 225 222 219 219 220 223 228 227 223 220 215 208 205 207 205 204 206 202 198 199 198 200 204
179 205 205 200 219 192 157 107 84 147 166 150 154 139 108 129 135 137 147 133 122 119 107 102 98 95 90 74 64 61 60 59 55 51 48 43 40 37 32 29 27 22 20 19 17 15 12 8 5 2 360 356 350 343 336 332 329 325 320 311 301 289 269 259 258 249 235 228 223 223 227 228 226 223 220 214 215 219 221 226 234 233 226 220 216 211 209 211 208 205 204 199 196 198 198 200 205
181 199 188 135 235 194 177 173 158 183 187 163 175 167 152 169 159 152 161 147 140 141 120 110 105 93 84 74 67 64 62 58 52 48 46 43 37 32 27 25 26 24 21 18 16 14 12 9 5 2 359 356 350 344 338 334 330 326 325 322 314 301 282 267 267 264 254 247 241 238 240 238 230 224 222 217 216 216 218 225 232 234 230 224 218 214 211 212 210 206 204 201 197 196 198 200 203
214 200 178 168 186 183 192 196 184 194 187 156 176 173 171 190 166 159 169 159 153 154 138 125 108 92 86 79 73 66 62 56 49 44 41 37 30 25 22 18 19 20 20 18 16 14 12 9 6 1 356 351 347 343 339 336 333 328 326 325 320 312 299 281 270 268 264 262 258 252 249 245 236 230 230 226 219 215 217 221 225 228 230 226 220 215 210 210 212 207 202 201 198 196 199 202 202
220 202 181 196 206 187 192 198 197 201 187 161 173 178 190 196 163 166 169 156 155 155 142 130 108 96 95 87 80 69 61 56 48 43 35 27 23 23 23 18 15 17 17 17 17 15 11 7 3 359 354 350 346 342 339 337 334 331 329 328 323 317 308 294 277 269 269 272 270 261 253 247 242 237 235 234 227 218 216 219 222 226 227 225 221 217 211 209 210 206 202 203 203 200 203 205 205
200 198 186 190 196 186 185 191 223 216 195 175 179 186 183 143 143 164 160 152 157 153 140 134 116 108 103 90 88 77 65 61 52 44 33 25 25 26 25 22 20 18 16 15 16 16 11 7 3 358 354 352 348 344 341 338 334 332 332 332 330 324 314 304 293 282 279 280 278 269 260 253 247 242 241 240 234 225 220 222 227 230 230 226 223 219 212 207 206 205 203 204 204 204 207 209 207
188 194 194 189 186 186 178 175 204 216 204 185 186 185 150 75 82 162 155 155 157 147 138 134 122 116 108 94 90 78 68 64 57 48 39 35 33 31 29 25 19 14 11 11 16 17 12 9 4 358 355 353 350 347 343 339 335 333 334 334 336 338 330 321 313 304 297 296 295 285 272 263 255 249 246 242 235 227 223 224 229 233 233 229 225 222 217 212 209 206 204 204 204 205 206 207 207